W6TQP Weather Reports


Display with metric or nautical units.
time (UTC)temp
F
wind
direction
speed
MPH
gust
MPH
rain 1hr
in
rain 24hr
in
rain mn
in
humidity
%
barometer
mb
20181213114501 44 226 0.0 0.0 0.00 0.00 0.00 97 1027.2
20181213113002 44 329 0.0 0.0 0.00 0.00 0.00 97 1027.0
20181213111502 44 185 0.0 0.0 0.00 0.00 0.00 97 1027.0
20181213104502 45 270 0.0 0.0 0.00 0.00 0.00 97 1027.5
20181213103002 45 270 0.0 0.0 0.00 0.00 0.00 97 1027.5
20181213101502 45 305 0.0 0.0 0.00 0.00 0.00 97 1027.6
20181213100002 45 35 0.0 0.0 0.00 0.00 0.00 96 1027.7
20181213094501 45 294 0.0 0.0 0.00 0.00 0.00 96 1027.7
20181213093002 45 224 0.0 0.0 0.00 0.00 0.00 96 1027.9
20181213091504 46 240 0.0 0.0 0.00 0.00 0.00 96 1027.9
20181213090009 46 180 0.0 0.0 0.00 0.00 0.00 96 1027.9
20181213084502 46 247 0.0 0.0 0.00 0.00 0.00 96 1027.8
20181213083003 46 305 0.0 0.0 0.00 0.00 0.00 96 1027.9
20181213081502 46 279 0.0 0.0 0.00 0.00 0.00 96 1028.1
20181213080002 46 286 0.0 0.0 0.00 0.00 0.00 96 1028.1
20181213074502 46 259 0.0 0.0 0.00 0.00 0.00 96 1028.3
20181213073002 46 19 0.0 0.0 0.00 0.00 0.00 95 1028.3
20181213071502 46 270 0.0 0.0 0.00 0.00 0.00 95 1028.4
20181213070003 46 270 0.0 0.0 0.00 0.00 0.00 95 1028.5
20181213064501 46 247 0.0 0.0 0.00 0.00 0.00 95 1028.5
20181213063002 46 346 0.0 0.0 0.00 0.00 0.00 94 1028.5
20181213061502 46 301 0.0 0.0 0.00 0.00 0.00 93 1028.5
20181213060002 46 283 0.0 0.0 0.00 0.00 0.00 93 1028.4
20181213054502 46 277 0.0 0.0 0.00 0.00 0.00 92 1028.4
20181213053002 46 270 0.0 0.0 0.00 0.00 0.00 90 1028.4
20181213051502 47 283 0.0 0.0 0.00 0.00 0.00 89 1028.5
20181213050002 47 270 0.0 1.0 0.00 0.00 0.00 88 1028.5
20181213044502 47 270 0.0 0.0 0.00 0.00 0.00 86 1028.5
20181213043003 47 292 0.0 0.0 0.00 0.00 0.00 85 1028.4
20181213041502 47 270 0.0 0.0 0.00 0.00 0.00 83 1028.2
20181213040003 48 112 0.0 0.0 0.00 0.00 0.00 84 1028.4
20181213034502 48 288 0.0 0.0 0.00 0.00 0.00 83 1028.3
20181213033002 49 247 0.0 0.0 0.00 0.00 0.00 83 1028.2
20181213031505 49 306 0.0 0.0 0.00 0.00 0.00 82 1028.0
20181213030003 49 251 0.0 0.0 0.00 0.00 0.00 81 1027.6
20181213024501 50 49 0.0 0.0 0.00 0.00 0.00 80 1027.5
20181213023003 51 273 1.0 3.0 0.00 0.00 0.00 75 1027.4
20181213021502 52 209 0.0 0.0 0.00 0.00 0.00 73 1027.2
20181213020003 53 357 0.0 2.0 0.00 0.00 0.00 72 1027.0
20181213014501 53 137 0.0 2.0 0.00 0.00 0.00 70 1027.0
20181213013003 53 64 0.0 2.0 0.00 0.00 0.00 71 1026.8
20181213011502 54 143 0.0 2.0 0.00 0.00 0.00 70 1026.5
20181213010002 54 103 0.0 0.0 0.00 0.00 0.00 71 1025.8
20181213004502 55 90 0.0 0.0 0.00 0.00 0.00 71 1025.8
20181213003003 56 139 0.0 0.0 0.00 0.00 0.00 78 1025.7
20181213001502 57 131 0.0 0.0 0.00 0.00 0.00 65 1025.4
20181213000003 58 24 0.0 0.0 0.00 0.00 0.00 63 1025.4
20181212234502 58 189 0.0 3.0 0.00 0.00 0.00 66 1025.4
20181212233004 59 154 1.0 2.0 0.00 0.00 0.00 81 1025.5
20181212231502 59 151 2.0 5.0 0.00 0.00 0.00 78 1025.5
20181212230003 59 176 2.0 5.0 0.00 0.00 0.00 78 1025.3
20181212224502 59 146 3.0 5.0 0.00 0.00 0.00 77 1025.4
20181212223002 59 147 2.0 6.0 0.00 0.00 0.00 78 1025.2
20181212221503 59 121 3.0 6.0 0.00 0.00 0.00 77 1025.2
20181212220005 58 177 3.0 6.0 0.00 0.00 0.00 77 1025.0
20181212214503 59 161 3.0 6.0 0.00 0.00 0.00 75 1024.9
20181212213004 60 124 4.0 6.0 0.00 0.00 0.00 73 1025.0
20181212211502 62 182 2.0 6.0 0.00 0.00 0.00 69 1024.9
20181212210003 62 234 2.0 6.0 0.00 0.00 0.00 68 1025.0
20181212204502 63 37 0.0 3.0 0.00 0.00 0.00 62 1025.1
20181212203003 63 235 0.0 2.0 0.00 0.00 0.00 62 1025.4
20181212201503 62 199 0.0 3.0 0.00 0.00 0.00 62 1025.7
20181212200002 63 104 0.0 5.0 0.00 0.00 0.00 63 1026.3
20181212194503 64 356 0.0 1.0 0.00 0.00 0.00 62 1026.3
20181212193005 65 90 1.0 2.0 0.00 0.00 0.00 61 1026.4
20181212191502 62 134 0.0 1.0 0.00 0.00 0.00 68 1026.7
20181212190002 60 204 0.0 0.0 0.00 0.00 0.00 69 1027.0
20181212184503 60 235 0.0 2.0 0.00 0.00 0.00 70 1027.0
20181212183005 59 349 0.0 1.0 0.00 0.00 0.00 69 1027.3
20181212181505 59 259 0.0 3.0 0.00 0.00 0.00 68 1027.4
20181212180030 57 124 3.0 5.0 0.00 0.00 0.00 71 1027.2
20181212174503 57 122 2.0 5.0 0.00 0.00 0.00 73 1027.2
20181212173004 56 112 0.0 6.0 0.00 0.00 0.00 72 1027.1
20181212171503 54 112 3.0 6.0 0.00 0.00 0.00 75 1027.1
20181212170003 54 125 2.0 5.0 0.00 0.00 0.00 76 1027.2
20181212164503 53 112 2.0 3.0 0.00 0.00 0.00 88 1027.0
20181212163003 51 157 2.0 3.0 0.00 0.00 0.00 98 1027.1
20181212161502 50 177 0.0 0.0 0.00 0.00 0.00 99 1026.9
20181212160002 48 270 0.0 0.0 0.00 0.00 0.00 99 1027.2
20181212154502 46 9 0.0 0.0 0.00 0.00 0.00 98 1026.9
20181212153002 45 29 0.0 0.0 0.00 0.00 0.00 96 1026.7
20181212151502 45 270 0.0 0.0 0.00 0.00 0.00 96 1026.6
20181212150002 45 67 0.0 0.0 0.00 0.00 0.00 96 1026.5
20181212144502 45 294 0.0 0.0 0.00 0.00 0.00 95 1026.3
20181212143002 45 22 0.0 0.0 0.00 0.00 0.00 95 1026.4
20181212141502 45 270 0.0 0.0 0.00 0.00 0.00 95 1026.4
20181212140003 45 215 0.0 0.0 0.00 0.00 0.00 95 1026.5
20181212134503 45 338 0.0 0.0 0.00 0.00 0.00 95 1026.3
20181212133004 45 270 0.0 0.0 0.00 0.00 0.00 95 1026.2
20181212131503 45 46 0.0 0.0 0.00 0.00 0.00 94 1025.9
20181212130003 45 288 0.0 0.0 0.00 0.00 0.00 94 1026.2
20181212124502 45 274 0.0 0.0 0.00 0.00 0.00 93 1026.0
20181212123002 45 309 0.0 0.0 0.00 0.00 0.00 93 1026.0
20181212121503 46 112 0.0 0.0 0.00 0.00 0.00 93 1026.2
20181212120003 46 283 0.0 0.0 0.00 0.00 0.00 93 1026.3